Zeus — V2OR — position and weather

sailwx.info

Track history (hours):
 
Tides and Currents Weather Stations Pressure Air Temp Water Temp Dewpoint Dewpoint Depression Visibility Wind Speed Wind Dir Waves Ship Positions

Zeus

Last reported at 2015-May-21 16:16 UTC. Time now 2015-May-22 22:13 UTC.
Position N 63°35' E 009°27'.

Length 90 m; draft 3.7 m.

Type: Cargo ship. MMSI: 304011025.

Date/timePositionNaut miles runAvg speedWind from/ knotsBaromVisibWave heightAir tempDewpointWater temp
2015-May-21 16:16N 63°35' E 009°27'13 7.5
2015-May-21 14:33N 63°31' E 009°54'9 9.2
2015-May-21 13:33N 63°22' E 009°57'3 2.8
2015-May-21 12:30N 63°19' E 009°53'0 0.0
2015-May-21 11:24N 63°19' E 009°53'0 0.0
2015-May-21 10:29N 63°19' E 009°53'0 0.0
2015-May-21 09:30N 63°19' E 009°53'0 0.0
2015-May-21 08:18N 63°19' E 009°53'0 0.0
2015-May-21 07:24N 63°19' E 009°53'0 0.0
2015-May-21 06:30N 63°19' E 009°53'0 0.0
2015-May-21 05:18N 63°19' E 009°53'0 0.0
2015-May-21 04:33N 63°19' E 009°53'0 0.0
2015-May-21 03:33N 63°19' E 009°53'0 0.0
2015-May-21 02:29N 63°19' E 009°53'0 0.0
2015-May-21 01:30N 63°19' E 009°53'0 0.0
2015-May-21 00:33N 63°19' E 009°53'0 0.0
2015-May-20 23:32N 63°19' E 009°53'0 0.0
2015-May-20 22:32N 63°19' E 009°53'0 0.0
2015-May-20 21:30N 63°19' E 009°53'0 0.0
2015-May-20 20:33N 63°19' E 009°53'0 0.0
2015-May-20 19:32N 63°19' E 009°53'0 0.0
2015-May-20 18:33N 63°19' E 009°53'0 0.0
2015-May-20 17:33N 63°19' E 009°53'0 0.0
2015-May-20 16:33N 63°19' E 009°53'0 0.0
2015-May-20 15:32N 63°19' E 009°53'0 0.0
2015-May-20 14:32N 63°19' E 009°53'0 0.0
2015-May-20 13:32N 63°19' E 009°53'0 0.0
2015-May-20 12:32N 63°19' E 009°53'0 0.0
2015-May-20 11:32N 63°19' E 009°53'0 0.0
2015-May-20 10:32N 63°19' E 009°53'1 0.3
2015-May-20 07:32N 63°19' E 009°51'0 0.0
2015-May-20 06:14N 63°19' E 009°51'0 0.0
2015-May-20 05:33N 63°19' E 009°51'0 0.0
2015-May-20 04:33N 63°19' E 009°51'0 0.0
2015-May-20 03:33N 63°19' E 009°51'0 0.0
2015-May-19 22:33N 63°19' E 009°51'0 0.0
2015-May-19 21:32N 63°19' E 009°51'0 0.0
2015-May-19 20:32N 63°19' E 009°51'0 0.0
2015-May-19 19:32N 63°19' E 009°51'7 6.7
2015-May-19 18:33N 63°24' E 009°59'9 9.2
2015-May-19 17:33N 63°33' E 009°51'9 6.8
2015-May-19 16:13N 63°38' E 009°33'4 6.7
2015-May-19 15:32N 63°42' E 009°31'8 6.0
2015-May-19 14:15N 63°49' E 009°38'0 0.0
2015-May-19 05:27N 63°49' E 009°38'5 5.3
2015-May-19 04:25N 63°44' E 009°32'10 9.6
2015-May-19 03:23N 63°35' E 009°24'  
2015-May-16 01:33N 59°05' E 004°52'10 9.9
2015-May-16 00:33N 58°56' E 005°02'1010.0
2015-May-15 23:31N 58°47' E 005°12'20 9.3
2015-May-15 21:20N 58°30' E 005°32'8 9.7
2015-May-15 20:29N 58°24' E 005°44'9 9.1
2015-May-15 19:33N 58°18' E 005°56'10 9.8
2015-May-15 18:33N 58°12' E 006°10'1110.0
2015-May-15 17:29N 58°05' E 006°24'127 2.8
2015-May-13 19:33N 57°48' E 010°22'8 8.2
2015-May-13 18:33N 57°47' E 010°38'4 3.7
2015-May-13 17:33N 57°43' E 010°40'2 0.1
2015-May-12 12:24N 57°43' E 010°36'12 5.7
2015-May-12 10:21N 57°35' E 010°52'8 9.4
2015-May-12 09:32N 57°30' E 011°02'7 7.1
2015-May-12 08:33N 57°25' E 011°11'10 9.6
2015-May-12 07:33N 57°17' E 011°21'1010.2
2015-May-12 06:33N 57°08' E 011°31'1210.2
2015-May-12 05:23N 56°57' E 011°40'8 9.9
2015-May-12 04:33N 56°50' E 011°46'10 9.7
2015-May-12 03:32N 56°41' E 011°56'11 9.5
2015-May-12 02:21N 56°31' E 012°03'17 9.7
2015-May-12 00:34N 56°17' E 012°22'1211.9
2015-May-11 23:33N 56°07' E 012°34'1111.4
2015-May-11 22:34N 55°57' E 012°43'1111.1
2015-May-11 21:34N 55°46' E 012°42'1211.8
2015-May-11 20:33N 55°34' E 012°42'1110.7
2015-May-11 19:34N 55°23' E 012°42'9 8.7
2015-May-11 18:34N 55°16' E 012°51'1010.2
2015-May-11 17:33N 55°12' E 013°07'1110.1
2015-May-11 16:27N 55°08' E 013°25'  
Track history (hours):
 
Tides and Currents Weather Stations Pressure Air Temp Water Temp Dewpoint Dewpoint Depression Visibility Wind Speed Wind Dir Waves Ship Positions

Zeus

Last reported at 2015-May-21 16:16 UTC. Time now 2015-May-22 22:13 UTC.
Position N 63°35' E 009°27'.

Length 90 m; draft 3.7 m.

Type: Cargo ship. MMSI: 304011025.

Date/timePositionNaut miles runAvg speedWind from/ knotsBaromVisibWave heightAir tempDewpointWater temp
2015-May-21 16:16N 63°35' E 009°27'13 7.5
2015-May-21 14:33N 63°31' E 009°54'9 9.2
2015-May-21 13:33N 63°22' E 009°57'3 2.8
2015-May-21 12:30N 63°19' E 009°53'0 0.0
2015-May-21 11:24N 63°19' E 009°53'0 0.0
2015-May-21 10:29N 63°19' E 009°53'0 0.0
2015-May-21 09:30N 63°19' E 009°53'0 0.0
2015-May-21 08:18N 63°19' E 009°53'0 0.0
2015-May-21 07:24N 63°19' E 009°53'0 0.0
2015-May-21 06:30N 63°19' E 009°53'0 0.0
2015-May-21 05:18N 63°19' E 009°53'0 0.0
2015-May-21 04:33N 63°19' E 009°53'0 0.0
2015-May-21 03:33N 63°19' E 009°53'0 0.0
2015-May-21 02:29N 63°19' E 009°53'0 0.0
2015-May-21 01:30N 63°19' E 009°53'0 0.0
2015-May-21 00:33N 63°19' E 009°53'0 0.0
2015-May-20 23:32N 63°19' E 009°53'0 0.0
2015-May-20 22:32N 63°19' E 009°53'0 0.0
2015-May-20 21:30N 63°19' E 009°53'0 0.0
2015-May-20 20:33N 63°19' E 009°53'0 0.0
2015-May-20 19:32N 63°19' E 009°53'0 0.0
2015-May-20 18:33N 63°19' E 009°53'0 0.0
2015-May-20 17:33N 63°19' E 009°53'0 0.0
2015-May-20 16:33N 63°19' E 009°53'0 0.0
2015-May-20 15:32N 63°19' E 009°53'0 0.0
2015-May-20 14:32N 63°19' E 009°53'0 0.0
2015-May-20 13:32N 63°19' E 009°53'0 0.0
2015-May-20 12:32N 63°19' E 009°53'0 0.0
2015-May-20 11:32N 63°19' E 009°53'0 0.0
2015-May-20 10:32N 63°19' E 009°53'1 0.3
2015-May-20 07:32N 63°19' E 009°51'0 0.0
2015-May-20 06:14N 63°19' E 009°51'0 0.0
2015-May-20 05:33N 63°19' E 009°51'0 0.0
2015-May-20 04:33N 63°19' E 009°51'0 0.0
2015-May-20 03:33N 63°19' E 009°51'0 0.0
2015-May-19 22:33N 63°19' E 009°51'0 0.0
2015-May-19 21:32N 63°19' E 009°51'0 0.0
2015-May-19 20:32N 63°19' E 009°51'0 0.0
2015-May-19 19:32N 63°19' E 009°51'7 6.7
2015-May-19 18:33N 63°24' E 009°59'9 9.2
2015-May-19 17:33N 63°33' E 009°51'9 6.8
2015-May-19 16:13N 63°38' E 009°33'4 6.7
2015-May-19 15:32N 63°42' E 009°31'8 6.0
2015-May-19 14:15N 63°49' E 009°38'0 0.0
2015-May-19 05:27N 63°49' E 009°38'5 5.3
2015-May-19 04:25N 63°44' E 009°32'10 9.6
2015-May-19 03:23N 63°35' E 009°24'  
2015-May-16 01:33N 59°05' E 004°52'10 9.9
2015-May-16 00:33N 58°56' E 005°02'1010.0
2015-May-15 23:31N 58°47' E 005°12'20 9.3
2015-May-15 21:20N 58°30' E 005°32'8 9.7
2015-May-15 20:29N 58°24' E 005°44'9 9.1
2015-May-15 19:33N 58°18' E 005°56'10 9.8
2015-May-15 18:33N 58°12' E 006°10'1110.0
2015-May-15 17:29N 58°05' E 006°24'127 2.8
2015-May-13 19:33N 57°48' E 010°22'8 8.2
2015-May-13 18:33N 57°47' E 010°38'4 3.7
2015-May-13 17:33N 57°43' E 010°40'2 0.1
2015-May-12 12:24N 57°43' E 010°36'12 5.7
2015-May-12 10:21N 57°35' E 010°52'8 9.4
2015-May-12 09:32N 57°30' E 011°02'7 7.1
2015-May-12 08:33N 57°25' E 011°11'10 9.6
2015-May-12 07:33N 57°17' E 011°21'1010.2
2015-May-12 06:33N 57°08' E 011°31'1210.2
2015-May-12 05:23N 56°57' E 011°40'8 9.9
2015-May-12 04:33N 56°50' E 011°46'10 9.7
2015-May-12 03:32N 56°41' E 011°56'11 9.5
2015-May-12 02:21N 56°31' E 012°03'17 9.7
2015-May-12 00:34N 56°17' E 012°22'1211.9
2015-May-11 23:33N 56°07' E 012°34'1111.4
2015-May-11 22:34N 55°57' E 012°43'1111.1
2015-May-11 21:34N 55°46' E 012°42'1211.8
2015-May-11 20:33N 55°34' E 012°42'1110.7
2015-May-11 19:34N 55°23' E 012°42'9 8.7
2015-May-11 18:34N 55°16' E 012°51'1010.2
2015-May-11 17:33N 55°12' E 013°07'1110.1
2015-May-11 16:27N 55°08' E 013°25'  

Dump ship's entire track history